Time,TemperatureF,DewpointF,PressureIn,WindDirection,WindDirectionDegrees,WindSpeedMPH,WindSpeedGustMPH,Humidity,HourlyPrecipIn,Conditions,Clouds,dailyrainin,SolarRadiationWatts/m^2,SoftwareType,DateUTC
2013-07-25 00:00:00,72.7,61.1,29.81,WNW,296,8.0,8.0,67,0.00,,---,0.00,0.00,VWS V14.01,2013-07-25 05:00:00,
2013-07-25 00:04:00,72.7,60.7,29.81,NNW,329,8.0,8.0,66,0.00,,---,0.00,0.00,VWS V14.01,2013-07-25 05:04:00,
2013-07-25 00:05:00,72.8,60.4,29.81,SW,219,10.0,10.0,65,0.00,,---,0.00,0.00,VWS V14.01,2013-07-25 05:05:00,
2013-07-25 00:09:00,73.0,60.5,29.81,North,352,7.0,10.0,65,0.00,,---,0.00,0.00,VWS V14.01,2013-07-25 05:09:00,
2013-07-25 00:10:00,73.0,60.5,29.81,North,0,8.0,10.0,65,0.00,,---,0.00,0.00,VWS V14.01,2013-07-25 05:10:00,
2013-07-25 00:14:00,73.0,60.5,29.81,WNW,282,5.0,11.0,65,0.00,,---,0.00,0.00,VWS V14.01,2013-07-25 05:14:00,
2013-07-25 00:15:00,73.0,60.5,29.80,North,359,7.0,11.0,65,0.00,,---,0.00,0.00,VWS V14.01,2013-07-25 05:15:00,
2013-07-25 00:19:00,73.2,60.7,29.80,NNW,343,3.0,7.0,65,0.00,,---,0.00,0.00,VWS V14.01,2013-07-25 05:19:00,
2013-07-25 00:20:00,73.3,60.8,29.80,NNW,346,3.0,7.0,65,0.00,,---,0.00,0.00,VWS V14.01,2013-07-25 05:20:00,
2013-07-25 00:24:00,73.0,61.4,29.80,NNW,330,5.0,6.0,67,0.00,,---,0.00,0.00,VWS V14.01,2013-07-25 05:24:00,
2013-07-25 00:25:00,73.0,61.4,29.80,NNW,346,2.0,6.0,67,0.00,,---,0.00,0.00,VWS V14.01,2013-07-25 05:25:00,
2013-07-25 00:29:00,72.5,61.3,29.80,WSW,241,3.0,5.0,68,0.00,,---,0.00,0.00,VWS V14.01,2013-07-25 05:29:00,
2013-07-25 00:30:00,72.3,61.2,29.80,NNW,346,7.0,7.0,68,0.00,,---,0.00,0.00,VWS V14.01,2013-07-25 05:30:00,
2013-07-25 00:35:00,72.3,61.2,29.80,NNW,346,6.0,7.0,68,0.00,,---,0.00,0.00,VWS V14.01,2013-07-25 05:35:00,
2013-07-25 00:40:00,72.7,61.5,29.80,North,0,6.0,7.0,68,0.00,,---,0.00,0.00,VWS V14.01,2013-07-25 05:40:00,
2013-07-25 00:45:00,72.3,61.6,29.80,NNW,346,4.0,7.0,69,0.00,,---,0.00,0.00,VWS V14.01,2013-07-25 05:45:00,
2013-07-25 00:50:00,72.8,60.8,29.80,North,349,5.0,6.0,66,0.00,,---,0.00,0.00,VWS V14.01,2013-07-25 05:50:00,
2013-07-25 00:55:00,73.2,60.7,29.80,North,354,4.0,6.0,65,0.00,,---,0.00,0.00,VWS V14.01,2013-07-25 05:55:00,
2013-07-25 01:00:00,73.3,60.8,29.80,North,356,5.0,6.0,65,0.00,,---,0.00,0.00,VWS V14.01,2013-07-25 06:00:00,
2013-07-25 01:05:00,73.3,60.8,29.80,North,0,3.0,9.0,65,0.00,,---,0.00,0.00,VWS V14.01,2013-07-25 06:05:00,
2013-07-25 01:10:00,73.0,61.0,29.80,North,0,7.0,7.0,66,0.00,,---,0.00,0.00,VWS V14.01,2013-07-25 06:10:00,
2013-07-25 01:15:00,72.8,60.8,29.80,North,0,7.0,8.0,66,0.00,,---,0.00,0.00,VWS V14.01,2013-07-25 06:15:00,
2013-07-25 01:20:00,72.7,61.1,29.80,North,353,7.0,10.0,67,0.00,,---,0.00,0.00,VWS V14.01,2013-07-25 06:20:00,
2013-07-25 01:21:00,72.7,61.1,29.80,NNW,344,7.0,7.0,67,0.00,,---,0.00,0.00,VWS V14.01,2013-07-25 06:21:00,
2013-07-25 01:25:00,72.0,61.3,29.80,WSW,247,7.0,7.0,69,0.00,,---,0.00,0.00,VWS V14.01,2013-07-25 06:25:00,
2013-07-25 01:26:00,72.0,61.7,29.80,NNW,347,6.0,7.0,70,0.00,,---,0.00,0.00,VWS V14.01,2013-07-25 06:26:00,
2013-07-25 01:30:00,71.1,61.6,29.80,North,0,6.0,7.0,72,0.00,,---,0.00,0.00,VWS V14.01,2013-07-25 06:30:00,
2013-07-25 01:31:00,71.1,61.6,29.80,NW,311,7.0,7.0,72,0.00,,---,0.00,0.00,VWS V14.01,2013-07-25 06:31:00,
2013-07-25 01:35:00,70.8,61.3,29.80,WNW,291,7.0,7.0,72,0.00,,---,0.00,0.00,VWS V14.01,2013-07-25 06:35:00,
2013-07-25 01:36:00,70.8,61.3,29.80,West,270,7.0,7.0,72,0.00,,---,0.00,0.00,VWS V14.01,2013-07-25 06:36:00,
2013-07-25 01:40:00,70.8,61.3,29.80,North,0,6.0,8.0,72,0.00,,---,0.00,0.00,VWS V14.01,2013-07-25 06:40:00,
2013-07-25 01:41:00,70.8,61.3,29.80,North,0,8.0,8.0,72,0.00,,---,0.00,0.00,VWS V14.01,2013-07-25 06:41:00,
2013-07-25 01:45:00,70.8,61.3,29.80,North,349,6.0,8.0,72,0.00,,---,0.00,0.00,VWS V14.01,2013-07-25 06:45:00,
2013-07-25 01:47:00,70.6,61.5,29.80,SE,126,6.0,8.0,73,0.00,,---,0.00,0.00,VWS V14.01,2013-07-25 06:47:00,
2013-07-25 01:50:00,70.6,61.5,29.80,North,0,7.0,9.0,73,0.00,,---,0.00,0.00,VWS V14.01,2013-07-25 06:50:00,
2013-07-25 01:52:00,70.4,61.3,29.80,North,359,7.0,8.0,73,0.00,,---,0.00,0.00,VWS V14.01,2013-07-25 06:52:00,
2013-07-25 01:55:00,70.4,61.3,29.80,North,0,8.0,10.0,73,0.00,,---,0.00,0.00,VWS V14.01,2013-07-25 06:55:00,
2013-07-25 01:57:00,70.4,61.3,29.80,North,352,10.0,10.0,73,0.00,,---,0.00,0.00,VWS V14.01,2013-07-25 06:57:00,
2013-07-25 02:00:00,70.4,61.3,29.80,North,349,10.0,11.0,73,0.00,,---,0.00,0.00,VWS V14.01,2013-07-25 07:00:00,
2013-07-25 02:02:00,70.4,61.3,29.80,NNW,344,10.0,11.0,73,0.00,,---,0.00,0.00,VWS V14.01,2013-07-25 07:02:00,
2013-07-25 02:05:00,70.4,61.3,29.80,SE,136,9.0,11.0,73,0.00,,---,0.00,0.00,VWS V14.01,2013-07-25 07:05:00,
2013-07-25 02:07:00,70.3,61.2,29.80,North,349,8.0,10.0,73,0.00,,---,0.00,0.00,VWS V14.01,2013-07-25 07:07:00,
2013-07-25 02:12:00,70.3,61.2,29.80,North,0,8.0,8.0,73,0.00,,---,0.00,0.00,VWS V14.01,2013-07-25 07:12:00,
2013-07-25 02:15:00,70.1,61.0,29.80,West,270,9.0,10.0,73,0.00,,---,0.00,0.00,VWS V14.01,2013-07-25 07:15:00,
2013-07-25 02:17:00,69.9,60.9,29.80,North,0,8.0,10.0,73,0.00,,---,0.00,0.00,VWS V14.01,2013-07-25 07:17:00,
2013-07-25 02:20:00,69.9,60.9,29.80,North,349,8.0,10.0,73,0.00,,---,0.00,0.00,VWS V14.01,2013-07-25 07:20:00,
2013-07-25 02:22:00,69.9,60.9,29.80,North,353,7.0,10.0,73,0.00,,---,0.00,0.00,VWS V14.01,2013-07-25 07:22:00,
2013-07-25 02:25:00,70.1,61.0,29.80,North,0,10.0,10.0,73,0.00,,---,0.00,0.00,VWS V14.01,2013-07-25 07:25:00,
2013-07-25 02:27:00,70.1,61.0,29.80,North,353,8.0,12.0,73,0.00,,---,0.00,0.00,VWS V14.01,2013-07-25 07:27:00,
2013-07-25 02:30:00,70.1,61.0,29.80,South,188,10.0,12.0,73,0.00,,---,0.00,0.00,VWS V14.01,2013-07-25 07:30:00,
2013-07-25 02:33:00,70.1,60.7,29.80,North,359,7.0,10.0,72,0.00,,---,0.00,0.00,VWS V14.01,2013-07-25 07:33:00,
2013-07-25 02:35:00,70.3,60.9,29.80,North,0,3.0,10.0,72,0.00,,---,0.00,0.00,VWS V14.01,2013-07-25 07:35:00,
2013-07-25 02:38:00,70.4,60.6,29.80,North,354,5.0,6.0,71,0.00,,---,0.00,0.00,VWS V14.01,2013-07-25 07:38:00,
2013-07-25 02:40:00,70.6,60.8,29.80,North,353,6.0,8.0,71,0.00,,---,0.00,0.00,VWS V14.01,2013-07-25 07:40:00,
2013-07-25 02:43:00,70.9,60.2,29.80,North,356,6.0,8.0,69,0.00,,---,0.00,0.00,VWS V14.01,2013-07-25 07:43:00,
2013-07-25 02:45:00,71.3,60.2,29.79,NNW,337,5.0,9.0,68,0.00,,---,0.00,0.00,VWS V14.01,2013-07-25 07:45:00,
2013-07-25 02:48:00,71.5,60.0,29.79,North,0,6.0,10.0,67,0.00,,---,0.00,0.00,VWS V14.01,2013-07-25 07:48:00,
2013-07-25 02:50:00,71.8,60.3,29.79,North,349,11.0,11.0,67,0.00,,---,0.00,0.00,VWS V14.01,2013-07-25 07:50:00,
2013-07-25 02:53:00,71.8,60.3,29.79,North,350,7.0,11.0,67,0.00,,---,0.00,0.00,VWS V14.01,2013-07-25 07:53:00,
2013-07-25 02:55:00,71.8,60.3,29.79,North,352,6.0,11.0,67,0.00,,---,0.00,0.00,VWS V14.01,2013-07-25 07:55:00,
2013-07-25 02:58:00,71.8,60.7,29.79,North,356,6.0,8.0,68,0.00,,---,0.00,0.00,VWS V14.01,2013-07-25 07:58:00,
2013-07-25 03:00:00,71.6,60.5,29.79,North,0,5.0,8.0,68,0.00,,---,0.00,0.00,VWS V14.01,2013-07-25 08:00:00,
2013-07-25 03:03:00,71.5,60.8,29.79,NNW,347,7.0,7.0,69,0.00,,---,0.00,0.00,VWS V14.01,2013-07-25 08:03:00,
2013-07-25 03:05:00,71.5,60.8,29.79,North,0,7.0,7.0,69,0.00,,---,0.00,0.00,VWS V14.01,2013-07-25 08:05:00,
2013-07-25 03:08:00,71.3,60.6,29.79,North,352,7.0,8.0,69,0.00,,---,0.00,0.00,VWS V14.01,2013-07-25 08:08:00,
2013-07-25 03:10:00,71.1,60.4,29.79,North,356,5.0,10.0,69,0.00,,---,0.00,0.00,VWS V14.01,2013-07-25 08:10:00,
2013-07-25 03:13:00,70.9,60.2,29.79,North,0,7.0,8.0,69,0.00,,---,0.00,0.00,VWS V14.01,2013-07-25 08:13:00,
2013-07-25 03:15:00,70.9,60.2,29.78,West,280,7.0,10.0,69,0.00,,---,0.00,0.00,VWS V14.01,2013-07-25 08:15:00,
2013-07-25 03:18:00,70.9,60.2,29.78,NNW,347,8.0,12.0,69,0.00,,---,0.00,0.00,VWS V14.01,2013-07-25 08:18:00,
2013-07-25 03:20:00,70.8,60.1,29.78,North,0,11.0,12.0,69,0.00,,---,0.00,0.00,VWS V14.01,2013-07-25 08:20:00,
2013-07-25 03:24:00,70.6,60.3,29.78,North,0,6.0,11.0,70,0.00,,---,0.00,0.00,VWS V14.01,2013-07-25 08:24:00,
2013-07-25 03:25:00,70.6,60.3,29.78,North,0,8.0,13.0,70,0.00,,---,0.00,0.00,VWS V14.01,2013-07-25 08:25:00,
2013-07-25 03:29:00,70.4,60.6,29.78,North,349,7.0,11.0,71,0.00,,---,0.00,0.00,VWS V14.01,2013-07-25 08:29:00,
2013-07-25 03:30:00,70.4,60.6,29.78,North,0,8.0,11.0,71,0.00,,---,0.00,0.00,VWS V14.01,2013-07-25 08:30:00,
2013-07-25 03:34:00,70.3,60.5,29.78,North,0,11.0,13.0,71,0.00,,---,0.00,0.00,VWS V14.01,2013-07-25 08:34:00,
2013-07-25 03:35:00,70.3,60.5,29.78,NNW,337,5.0,13.0,71,0.00,,---,0.00,0.00,VWS V14.01,2013-07-25 08:35:00,
2013-07-25 03:39:00,70.3,60.5,29.78,North,349,11.0,12.0,71,0.00,,---,0.00,0.00,VWS V14.01,2013-07-25 08:39:00,
2013-07-25 03:40:00,70.1,60.7,29.78,North,349,5.0,12.0,72,0.00,,---,0.00,0.00,VWS V14.01,2013-07-25 08:40:00,
2013-07-25 03:44:00,69.9,60.5,29.78,North,353,6.0,9.0,72,0.00,,---,0.00,0.00,VWS V14.01,2013-07-25 08:44:00,
2013-07-25 03:45:00,69.9,60.9,29.78,North,359,6.0,9.0,73,0.00,,---,0.00,0.00,VWS V14.01,2013-07-25 08:45:00,
2013-07-25 03:49:00,69.8,61.2,29.78,WSW,243,6.0,8.0,74,0.00,,---,0.00,0.00,VWS V14.01,2013-07-25 08:49:00,
2013-07-25 03:50:00,69.6,61.0,29.78,North,0,6.0,8.0,74,0.00,,---,0.00,0.00,VWS V14.01,2013-07-25 08:50:00,
2013-07-25 03:54:00,69.4,61.1,29.78,North,0,6.0,7.0,75,0.00,,---,0.00,0.00,VWS V14.01,2013-07-25 08:54:00,
2013-07-25 03:59:00,69.1,61.2,29.78,North,354,7.0,7.0,76,0.00,,---,0.00,0.00,VWS V14.01,2013-07-25 08:59:00,
2013-07-25 04:04:00,68.9,61.0,29.78,North,0,5.0,7.0,76,0.00,,---,0.00,0.00,VWS V14.01,2013-07-25 09:04:00,
2013-07-25 04:05:00,68.9,61.0,29.78,North,357,3.0,7.0,76,0.00,,---,0.00,0.00,VWS V14.01,2013-07-25 09:05:00,
2013-07-25 04:09:00,68.9,61.0,29.78,NNW,347,7.0,7.0,76,0.00,,---,0.00,0.00,VWS V14.01,2013-07-25 09:09:00,
2013-07-25 04:10:00,68.9,61.0,29.78,North,0,5.0,7.0,76,0.00,,---,0.00,0.00,VWS V14.01,2013-07-25 09:10:00,
2013-07-25 04:15:00,68.9,61.0,29.78,NNW,344,5.0,8.0,76,0.00,,---,0.00,0.00,VWS V14.01,2013-07-25 09:15:00,
2013-07-25 04:20:00,68.9,60.7,29.78,North,359,5.0,7.0,75,0.00,,---,0.00,0.00,VWS V14.01,2013-07-25 09:20:00,
2013-07-25 04:25:00,69.1,60.5,29.78,North,0,5.0,7.0,74,0.00,,---,0.00,0.00,VWS V14.01,2013-07-25 09:25:00,
2013-07-25 04:30:00,69.4,60.4,29.78,NNW,344,6.0,8.0,73,0.00,,---,0.00,0.00,VWS V14.01,2013-07-25 09:30:00,
2013-07-25 04:35:00,69.6,60.2,29.78,North,0,7.0,7.0,72,0.00,,---,0.00,0.00,VWS V14.01,2013-07-25 09:35:00,
2013-07-25 04:40:00,69.6,60.2,29.78,NNW,347,5.0,10.0,72,0.00,,---,0.00,0.00,VWS V14.01,2013-07-25 09:40:00,
2013-07-25 04:45:00,69.6,60.2,29.77,North,356,5.0,9.0,72,0.00,,---,0.00,0.00,VWS V14.01,2013-07-25 09:45:00,
2013-07-25 04:50:00,69.6,60.2,29.77,North,0,3.0,7.0,72,0.00,,---,0.00,0.00,VWS V14.01,2013-07-25 09:50:00,
2013-07-25 04:55:00,69.4,60.0,29.77,North,350,7.0,7.0,72,0.00,,---,0.00,0.00,VWS V14.01,2013-07-25 09:55:00,
2013-07-25 05:00:00,69.3,60.3,29.76,NNW,347,5.0,7.0,73,0.00,,---,0.00,0.00,VWS V14.01,2013-07-25 10:00:00,
2013-07-25 05:01:00,69.3,60.3,29.76,North,359,5.0,5.0,73,0.00,,---,0.00,0.00,VWS V14.01,2013-07-25 10:01:00,
2013-07-25 05:05:00,69.3,60.3,29.76,North,353,5.0,8.0,73,0.00,,---,0.00,0.00,VWS V14.01,2013-07-25 10:05:00,
2013-07-25 05:06:00,69.3,60.3,29.76,NNW,346,6.0,6.0,73,0.00,,---,0.00,0.00,VWS V14.01,2013-07-25 10:06:00,
2013-07-25 05:10:00,69.4,60.0,29.76,North,0,5.0,8.0,72,0.00,,---,0.00,0.00,VWS V14.01,2013-07-25 10:10:00,
2013-07-25 05:12:00,69.4,59.6,29.76,North,0,7.0,7.0,71,0.00,,---,0.00,0.00,VWS V14.01,2013-07-25 10:12:00,
2013-07-25 05:15:00,69.6,59.8,29.77,North,354,5.0,8.0,71,0.00,,---,0.00,0.00,VWS V14.01,2013-07-25 10:15:00,
2013-07-25 05:17:00,69.8,59.6,29.77,North,0,3.0,6.0,70,0.00,,---,0.00,0.00,VWS V14.01,2013-07-25 10:17:00,
2013-07-25 05:20:00,69.9,59.7,29.77,North,0,6.0,8.0,70,0.00,,---,0.00,0.00,VWS V14.01,2013-07-25 10:20:00,
2013-07-25 05:22:00,69.9,59.7,29.77,North,0,5.0,7.0,70,0.00,,---,0.00,0.00,VWS V14.01,2013-07-25 10:22:00,
2013-07-25 05:25:00,69.9,60.1,29.77,North,352,5.0,8.0,71,0.00,,---,0.00,0.00,VWS V14.01,2013-07-25 10:25:00,
2013-07-25 05:27:00,69.8,60.0,29.77,North,0,6.0,8.0,71,0.00,,---,0.00,0.00,VWS V14.01,2013-07-25 10:27:00,
2013-07-25 05:30:00,69.6,60.2,29.77,North,0,3.0,8.0,72,0.00,,---,0.00,0.00,VWS V14.01,2013-07-25 10:30:00,
2013-07-25 05:32:00,69.6,60.2,29.77,North,359,5.0,8.0,72,0.00,,---,0.00,0.00,VWS V14.01,2013-07-25 10:32:00,
2013-07-25 05:35:00,69.4,60.0,29.77,NNW,347,2.0,8.0,72,0.00,,---,0.00,0.00,VWS V14.01,2013-07-25 10:35:00,
2013-07-25 05:37:00,69.4,60.0,29.77,North,0,4.0,7.0,72,0.00,,---,0.00,0.00,VWS V14.01,2013-07-25 10:37:00,
2013-07-25 05:40:00,69.3,60.3,29.77,North,0,4.0,7.0,73,0.00,,---,0.00,0.00,VWS V14.01,2013-07-25 10:40:00,
2013-07-25 05:42:00,69.4,60.0,29.77,NNW,346,4.0,6.0,72,0.00,,---,0.00,0.00,VWS V14.01,2013-07-25 10:42:00,
2013-07-25 05:45:00,69.4,60.0,29.77,SW,215,3.0,7.0,72,0.00,,---,0.00,0.00,VWS V14.01,2013-07-25 10:45:00,
2013-07-25 05:47:00,69.4,60.0,29.77,North,353,5.0,6.0,72,0.00,,---,0.00,0.00,VWS V14.01,2013-07-25 10:47:00,
2013-07-25 05:50:00,69.4,60.0,29.77,North,0,6.0,8.0,72,0.00,,---,0.00,0.00,VWS V14.01,2013-07-25 10:50:00,
2013-07-25 05:52:00,69.4,60.0,29.77,West,275,5.0,7.0,72,0.00,,---,0.00,0.00,VWS V14.01,2013-07-25 10:52:00,
2013-07-25 05:55:00,69.4,60.0,29.77,North,0,3.0,7.0,72,0.00,,---,0.00,0.00,VWS V14.01,2013-07-25 10:55:00,
2013-07-25 05:57:00,69.4,60.0,29.77,North,0,3.0,4.0,72,0.00,,---,0.00,0.00,VWS V14.01,2013-07-25 10:57:00,
2013-07-25 06:00:00,69.4,59.6,29.77,WSW,253,3.0,5.0,71,0.00,,---,0.00,0.00,VWS V14.01,2013-07-25 11:00:00,
2013-07-25 06:02:00,69.6,59.8,29.77,North,0,4.0,5.0,71,0.00,,---,0.00,0.00,VWS V14.01,2013-07-25 11:02:00,
2013-07-25 06:05:00,69.6,59.4,29.77,North,349,3.0,6.0,70,0.00,,---,0.00,0.00,VWS V14.01,2013-07-25 11:05:00,
2013-07-25 06:07:00,69.8,59.6,29.77,North,356,4.0,5.0,70,0.00,,---,0.00,0.00,VWS V14.01,2013-07-25 11:07:00,
2013-07-25 06:10:00,69.8,59.6,29.77,North,0,4.0,5.0,70,0.00,,---,0.00,0.00,VWS V14.01,2013-07-25 11:10:00,
2013-07-25 06:12:00,69.8,59.6,29.77,North,0,4.0,5.0,70,0.00,,---,0.00,0.00,VWS V14.01,2013-07-25 11:12:00,
2013-07-25 06:15:00,69.8,60.0,29.77,North,0,4.0,5.0,71,0.00,,---,0.00,0.00,VWS V14.01,2013-07-25 11:15:00,
2013-07-25 06:17:00,69.8,60.4,29.77,North,0,1.0,5.0,72,0.00,,---,0.00,0.00,VWS V14.01,2013-07-25 11:17:00,
2013-07-25 06:20:00,69.6,60.2,29.77,NNW,346,2.0,5.0,72,0.00,,---,0.00,0.00,VWS V14.01,2013-07-25 11:20:00,
2013-07-25 06:23:00,69.6,60.2,29.77,North,0,0.0,3.0,72,0.00,,---,0.00,0.00,VWS V14.01,2013-07-25 11:23:00,
2013-07-25 06:25:00,69.4,60.0,29.77,North,0,0.0,3.0,72,0.00,,---,0.00,0.00,VWS V14.01,2013-07-25 11:25:00,
2013-07-25 06:28:00,69.4,60.0,29.77,North,350,0.0,0.0,72,0.00,,---,0.00,0.00,VWS V14.01,2013-07-25 11:28:00,
2013-07-25 06:30:00,69.3,59.9,29.79,North,354,0.0,0.0,72,0.00,,---,0.00,0.00,VWS V14.01,2013-07-25 11:30:00,
2013-07-25 06:33:00,69.3,59.9,29.79,North,0,0.0,0.0,72,0.00,,---,0.00,0.00,VWS V14.01,2013-07-25 11:33:00,
2013-07-25 06:35:00,69.3,59.9,29.79,NNW,347,0.0,0.0,72,0.00,,---,0.00,0.00,VWS V14.01,2013-07-25 11:35:00,
2013-07-25 06:38:00,69.3,59.9,29.79,NNW,342,3.0,3.0,72,0.00,,---,0.00,0.00,VWS V14.01,2013-07-25 11:38:00,
2013-07-25 06:40:00,69.3,60.3,29.79,NNW,346,2.0,4.0,73,0.00,,---,0.00,0.00,VWS V14.01,2013-07-25 11:40:00,
2013-07-25 06:43:00,69.3,60.3,29.79,North,0,5.0,6.0,73,0.00,,---,0.00,0.00,VWS V14.01,2013-07-25 11:43:00,
2013-07-25 06:45:00,69.3,60.7,29.80,North,357,5.0,6.0,74,0.00,,---,0.00,0.00,VWS V14.01,2013-07-25 11:45:00,
2013-07-25 06:48:00,69.1,60.5,29.80,North,0,6.0,6.0,74,0.00,,---,0.00,12.00,VWS V14.01,2013-07-25 11:48:00,
2013-07-25 06:50:00,69.1,60.5,29.80,North,0,5.0,6.0,74,0.00,,---,0.00,12.00,VWS V14.01,2013-07-25 11:50:00,
2013-07-25 06:53:00,69.1,60.5,29.80,North,0,4.0,7.0,74,0.00,,---,0.00,5.00,VWS V14.01,2013-07-25 11:53:00,
2013-07-25 06:55:00,69.1,60.5,29.80,NNW,346,4.0,7.0,74,0.00,,---,0.00,5.00,VWS V14.01,2013-07-25 11:55:00,
2013-07-25 06:59:00,69.1,60.5,29.80,North,350,5.0,6.0,74,0.00,,---,0.00,11.00,VWS V14.01,2013-07-25 11:59:00,
2013-07-25 07:00:00,69.1,60.5,29.82,NNW,346,2.0,6.0,74,0.00,,---,0.00,7.00,VWS V14.01,2013-07-25 12:00:00,
2013-07-25 07:04:00,69.1,60.5,29.82,West,272,3.0,5.0,74,0.00,,---,0.00,7.00,VWS V14.01,2013-07-25 12:04:00,
2013-07-25 07:05:00,69.3,60.7,29.82,North,352,2.0,5.0,74,0.00,,---,0.00,9.00,VWS V14.01,2013-07-25 12:05:00,
2013-07-25 07:09:00,69.3,60.3,29.82,North,350,3.0,5.0,73,0.00,,---,0.00,9.00,VWS V14.01,2013-07-25 12:09:00,
2013-07-25 07:10:00,69.3,60.3,29.82,West,270,3.0,5.0,73,0.00,,---,0.00,9.00,VWS V14.01,2013-07-25 12:10:00,
2013-07-25 07:14:00,69.3,60.3,29.82,West,270,0.0,3.0,73,0.00,,---,0.00,11.00,VWS V14.01,2013-07-25 12:14:00,
2013-07-25 07:15:00,69.3,60.3,29.82,West,270,0.0,3.0,73,0.00,,---,0.00,11.00,VWS V14.01,2013-07-25 12:15:00,
2013-07-25 07:19:00,69.3,60.3,29.82,West,271,0.0,0.0,73,0.00,,---,0.00,12.00,VWS V14.01,2013-07-25 12:19:00,
2013-07-25 07:20:00,69.3,60.3,29.82,West,271,0.0,0.0,73,0.00,,---,0.00,12.00,VWS V14.01,2013-07-25 12:20:00,
2013-07-25 07:24:00,69.4,60.4,29.82,West,271,0.0,0.0,73,0.00,,---,0.00,16.00,VWS V14.01,2013-07-25 12:24:00,
2013-07-25 07:25:00,69.4,60.4,29.82,West,270,0.0,0.0,73,0.00,,---,0.00,19.00,VWS V14.01,2013-07-25 12:25:00,
2013-07-25 07:29:00,69.6,61.0,29.82,West,270,0.0,0.0,74,0.00,,---,0.00,19.00,VWS V14.01,2013-07-25 12:29:00,
2013-07-25 07:30:00,69.6,61.0,29.82,West,271,0.0,0.0,74,0.00,,---,0.00,21.00,VWS V14.01,2013-07-25 12:30:00,
2013-07-25 07:34:00,69.6,61.0,29.82,West,270,0.0,0.0,74,0.00,,---,0.00,25.00,VWS V14.01,2013-07-25 12:34:00,
2013-07-25 07:35:00,69.6,61.0,29.82,West,270,0.0,0.0,74,0.00,,---,0.00,25.00,VWS V14.01,2013-07-25 12:35:00,
2013-07-25 07:40:00,69.6,61.3,29.82,North,352,0.0,0.0,75,0.00,,---,0.00,26.00,VWS V14.01,2013-07-25 12:40:00,
2013-07-25 07:45:00,69.6,61.7,29.82,North,0,0.0,0.0,76,0.00,,---,0.00,39.00,VWS V14.01,2013-07-25 12:45:00,
2013-07-25 07:50:00,69.6,62.1,29.82,North,0,0.0,0.0,77,0.00,,---,0.00,42.00,VWS V14.01,2013-07-25 12:50:00,
2013-07-25 07:55:00,69.4,62.2,29.82,North,353,0.0,0.0,78,0.00,,---,0.00,49.00,VWS V14.01,2013-07-25 12:55:00,
2013-07-25 08:00:00,69.4,62.6,29.81,NW,309,0.0,0.0,79,0.00,,---,0.00,53.00,VWS V14.01,2013-07-25 13:00:00,
2013-07-25 08:05:00,69.3,62.5,29.81,North,357,0.0,0.0,79,0.00,,---,0.00,63.00,VWS V14.01,2013-07-25 13:05:00,
2013-07-25 08:10:00,69.3,62.5,29.81,North,353,0.0,0.0,79,0.00,,---,0.00,53.00,VWS V14.01,2013-07-25 13:10:00,
2013-07-25 08:15:00,69.1,62.3,29.82,NNW,347,0.0,0.0,79,0.00,,---,0.00,49.00,VWS V14.01,2013-07-25 13:15:00,
2013-07-25 08:20:00,69.3,62.5,29.82,North,354,0.0,0.0,79,0.00,,---,0.00,49.00,VWS V14.01,2013-07-25 13:20:00,
2013-07-25 08:25:00,69.3,62.5,29.82,NNW,347,0.0,0.0,79,0.00,,---,0.00,42.00,VWS V14.01,2013-07-25 13:25:00,
2013-07-25 08:30:00,69.4,62.6,29.81,NNW,340,0.0,0.0,79,0.00,,---,0.00,44.00,VWS V14.01,2013-07-25 13:30:00,
2013-07-25 08:35:00,69.6,62.8,29.81,SW,229,2.0,2.0,79,0.00,,---,0.00,58.00,VWS V14.01,2013-07-25 13:35:00,
2013-07-25 08:40:00,69.6,63.2,29.81,North,349,2.0,5.0,80,0.00,,---,0.00,90.00,VWS V14.01,2013-07-25 13:40:00,
2013-07-25 08:41:00,69.6,62.8,29.81,NNW,346,1.0,2.0,79,0.00,,---,0.00,90.00,VWS V14.01,2013-07-25 13:41:00,
2013-07-25 08:45:00,69.6,62.8,29.82,North,350,3.0,3.0,79,0.00,,---,0.00,106.00,VWS V14.01,2013-07-25 13:45:00,
2013-07-25 08:46:00,69.8,63.0,29.82,North,350,4.0,4.0,79,0.00,,---,0.00,109.00,VWS V14.01,2013-07-25 13:46:00,
2013-07-25 08:50:00,69.8,63.0,29.82,SSE,157,6.0,6.0,79,0.00,,---,0.00,125.00,VWS V14.01,2013-07-25 13:50:00,
2013-07-25 08:51:00,69.8,63.0,29.82,North,0,2.0,7.0,79,0.00,,---,0.00,127.00,VWS V14.01,2013-07-25 13:51:00,
2013-07-25 08:55:00,69.8,62.6,29.82,North,0,1.0,7.0,78,0.00,,---,0.00,141.00,VWS V14.01,2013-07-25 13:55:00,
2013-07-25 08:57:00,69.9,62.7,29.82,North,0,2.0,5.0,78,0.00,,---,0.00,148.00,VWS V14.01,2013-07-25 13:57:00,
2013-07-25 09:00:00,69.9,62.4,29.82,North,350,4.0,5.0,77,0.00,,---,0.00,160.00,VWS V14.01,2013-07-25 14:00:00,
2013-07-25 09:02:00,70.1,62.6,29.82,North,354,2.0,4.0,77,0.00,,---,0.00,162.00,VWS V14.01,2013-07-25 14:02:00,
2013-07-25 09:05:00,70.3,62.8,29.82,North,0,0.0,4.0,77,0.00,,---,0.00,171.00,VWS V14.01,2013-07-25 14:05:00,
2013-07-25 09:07:00,70.4,62.5,29.82,NNW,344,0.0,0.0,76,0.00,,---,0.00,158.00,VWS V14.01,2013-07-25 14:07:00,
2013-07-25 09:10:00,70.6,62.3,29.82,North,359,0.0,0.0,75,0.00,,---,0.00,148.00,VWS V14.01,2013-07-25 14:10:00,
2013-07-25 09:12:00,70.8,62.5,29.82,NNW,346,0.0,0.0,75,0.00,,---,0.00,141.00,VWS V14.01,2013-07-25 14:12:00,
2013-07-25 09:15:00,70.9,62.6,29.83,North,0,0.0,0.0,75,0.00,,---,0.00,123.00,VWS V14.01,2013-07-25 14:15:00,
2013-07-25 09:17:00,71.1,62.8,29.83,North,0,0.0,0.0,75,0.00,,---,0.00,118.00,VWS V14.01,2013-07-25 14:17:00,
2013-07-25 09:20:00,71.3,63.0,29.83,North,0,0.0,0.0,75,0.00,,---,0.00,116.00,VWS V14.01,2013-07-25 14:20:00,
2013-07-25 09:23:00,71.5,62.8,29.83,NW,309,0.0,0.0,74,0.00,,---,0.00,118.00,VWS V14.01,2013-07-25 14:23:00,
2013-07-25 09:25:00,71.6,62.9,29.83,NNW,332,0.0,0.0,74,0.00,,---,0.00,125.00,VWS V14.01,2013-07-25 14:25:00,
2013-07-25 09:28:00,71.8,63.1,29.83,NNW,330,0.0,0.0,74,0.00,,---,0.00,128.00,VWS V14.01,2013-07-25 14:28:00,
2013-07-25 09:30:00,72.0,62.9,29.82,NNW,339,0.0,0.0,73,0.00,,---,0.00,127.00,VWS V14.01,2013-07-25 14:30:00,
2013-07-25 09:33:00,72.0,62.9,29.82,NNW,347,0.0,0.0,73,0.00,,---,0.00,123.00,VWS V14.01,2013-07-25 14:33:00,
2013-07-25 09:35:00,72.1,63.0,29.82,NW,323,0.0,0.0,73,0.00,,---,0.00,120.00,VWS V14.01,2013-07-25 14:35:00,
2013-07-25 09:38:00,72.3,63.2,29.82,NNW,337,0.0,0.0,73,0.00,,---,0.00,118.00,VWS V14.01,2013-07-25 14:38:00,
2013-07-25 09:40:00,72.5,63.8,29.82,NW,320,0.0,0.0,74,0.00,,---,0.00,132.00,VWS V14.01,2013-07-25 14:40:00,
2013-07-25 09:43:00,72.7,63.9,29.82,NNW,336,0.0,0.0,74,0.00,,---,0.00,141.00,VWS V14.01,2013-07-25 14:43:00,
2013-07-25 09:45:00,72.7,63.5,29.83,North,0,0.0,0.0,73,0.00,,---,0.00,144.00,VWS V14.01,2013-07-25 14:45:00,
2013-07-25 09:48:00,72.8,63.7,29.83,NNW,347,0.0,0.0,73,0.00,,---,0.00,146.00,VWS V14.01,2013-07-25 14:48:00,
2013-07-25 09:50:00,73.0,63.8,29.83,North,357,0.0,0.0,73,0.00,,---,0.00,148.00,VWS V14.01,2013-07-25 14:50:00,
2013-07-25 09:54:00,73.0,63.8,29.83,North,354,0.0,0.0,73,0.00,,---,0.00,148.00,VWS V14.01,2013-07-25 14:54:00,
2013-07-25 09:55:00,73.2,64.0,29.83,NNW,347,0.0,0.0,73,0.00,,---,0.00,144.00,VWS V14.01,2013-07-25 14:55:00,
2013-07-25 09:59:00,73.2,64.0,29.83,North,0,0.0,0.0,73,0.00,,---,0.00,146.00,VWS V14.01,2013-07-25 14:59:00,
2013-07-25 10:00:00,73.2,64.0,29.82,North,349,0.0,0.0,73,0.00,,---,0.00,146.00,VWS V14.01,2013-07-25 15:00:00,
2013-07-25 10:04:00,73.3,64.1,29.82,North,357,0.0,0.0,73,0.00,,---,0.00,153.00,VWS V14.01,2013-07-25 15:04:00,
2013-07-25 10:05:00,73.3,64.1,29.82,North,353,0.0,0.0,73,0.00,,---,0.00,148.00,VWS V14.01,2013-07-25 15:05:00,
2013-07-25 10:09:00,73.3,64.1,29.82,NNW,347,0.0,0.0,73,0.00,,---,0.00,148.00,VWS V14.01,2013-07-25 15:09:00,
2013-07-25 10:10:00,73.3,64.1,29.82,SE,133,2.0,2.0,73,0.00,,---,0.00,151.00,VWS V14.01,2013-07-25 15:10:00,
2013-07-25 10:14:00,73.3,64.1,29.82,SE,143,0.0,2.0,73,0.00,,---,0.00,160.00,VWS V14.01,2013-07-25 15:14:00,
2013-07-25 10:15:00,73.3,64.1,29.82,SE,145,0.0,2.0,73,0.00,,---,0.00,162.00,VWS V14.01,2013-07-25 15:15:00,
2013-07-25 10:19:00,73.3,64.1,29.82,North,353,1.0,4.0,73,0.00,,---,0.00,169.00,VWS V14.01,2013-07-25 15:19:00,
2013-07-25 10:20:00,73.5,64.3,29.82,North,354,3.0,4.0,73,0.00,,---,0.00,171.00,VWS V14.01,2013-07-25 15:20:00,
2013-07-25 10:24:00,73.5,64.3,29.82,North,0,3.0,4.0,73,0.00,,---,0.00,174.00,VWS V14.01,2013-07-25 15:24:00,
2013-07-25 10:25:00,73.5,64.3,29.82,SW,220,6.0,6.0,73,0.00,,---,0.00,174.00,VWS V14.01,2013-07-25 15:25:00,
2013-07-25 10:29:00,73.7,64.5,29.82,SSE,165,5.0,6.0,73,0.00,,---,0.00,167.00,VWS V14.01,2013-07-25 15:29:00,
2013-07-25 10:30:00,73.7,64.5,29.81,West,267,3.0,6.0,73,0.00,,---,0.00,165.00,VWS V14.01,2013-07-25 15:30:00,
2013-07-25 10:34:00,73.7,64.9,29.81,NNW,344,6.0,7.0,74,0.00,,---,0.00,165.00,VWS V14.01,2013-07-25 15:34:00,
2013-07-25 10:35:00,73.7,64.9,29.81,NNW,346,1.0,7.0,74,0.00,,---,0.00,167.00,VWS V14.01,2013-07-25 15:35:00,
2013-07-25 10:39:00,73.9,65.1,29.81,NW,320,1.0,6.0,74,0.00,,---,0.00,169.00,VWS V14.01,2013-07-25 15:39:00,
2013-07-25 10:40:00,73.9,65.1,29.81,NNW,343,6.0,7.0,74,0.00,,---,0.00,169.00,VWS V14.01,2013-07-25 15:40:00,
2013-07-25 10:45:00,73.9,65.1,29.81,North,353,7.0,7.0,74,0.00,,---,0.00,153.00,VWS V14.01,2013-07-25 15:45:00,
2013-07-25 10:50:00,73.9,65.1,29.81,North,356,3.0,8.0,74,0.00,,---,0.00,132.00,VWS V14.01,2013-07-25 15:50:00,
2013-07-25 10:55:00,74.0,65.6,29.81,NNW,346,4.0,5.0,75,0.00,,---,0.00,153.00,VWS V14.01,2013-07-25 15:55:00,
2013-07-25 11:00:00,74.0,65.6,29.80,ESE,110,6.0,9.0,75,0.00,,---,0.00,150.00,VWS V14.01,2013-07-25 16:00:00,
2013-07-25 11:05:00,74.0,65.6,29.80,North,0,8.0,10.0,75,0.00,,---,0.00,137.00,VWS V14.01,2013-07-25 16:05:00,
2013-07-25 11:10:00,74.2,65.8,29.80,WNW,292,7.0,8.0,75,0.00,,---,0.00,125.00,VWS V14.01,2013-07-25 16:10:00,
2013-07-25 11:15:00,74.2,65.8,29.79,West,274,6.0,9.0,75,0.00,,---,0.00,151.00,VWS V14.01,2013-07-25 16:15:00,
2013-07-25 11:20:00,74.6,66.2,29.79,North,359,4.0,11.0,75,0.00,,---,0.00,150.00,VWS V14.01,2013-07-25 16:20:00,
2013-07-25 11:25:00,74.7,66.3,29.79,North,353,8.0,10.0,75,0.00,,---,0.00,181.00,VWS V14.01,2013-07-25 16:25:00,
2013-07-25 11:30:00,75.1,66.6,29.79,North,0,2.0,10.0,75,0.00,,---,0.00,178.00,VWS V14.01,2013-07-25 16:30:00,
2013-07-25 11:35:00,75.3,66.8,29.79,North,0,5.0,8.0,75,0.00,,---,0.00,134.00,VWS V14.01,2013-07-25 16:35:00,
2013-07-25 11:40:00,75.6,67.1,29.79,North,357,6.0,8.0,75,0.00,,---,0.00,139.00,VWS V14.01,2013-07-25 16:40:00,
2013-07-25 11:45:00,75.8,67.3,29.80,NNW,344,5.0,8.0,75,0.00,,---,0.00,139.00,VWS V14.01,2013-07-25 16:45:00,
2013-07-25 11:50:00,76.1,67.6,29.80,North,354,5.0,7.0,75,0.00,,---,0.00,143.00,VWS V14.01,2013-07-25 16:50:00,
2013-07-25 11:55:00,76.5,68.4,29.80,North,357,7.0,8.0,76,0.00,,---,0.00,130.00,VWS V14.01,2013-07-25 16:55:00,
2013-07-25 12:00:00,76.5,68.4,29.80,SSW,195,7.0,9.0,76,0.00,,---,0.00,123.00,VWS V14.01,2013-07-25 17:00:00,
2013-07-25 12:05:00,76.7,68.6,29.80,North,0,6.0,6.0,76,0.00,,---,0.00,109.00,VWS V14.01,2013-07-25 17:05:00,
2013-07-25 12:10:00,76.8,68.3,29.80,North,0,3.0,6.0,75,0.00,,---,0.00,111.00,VWS V14.01,2013-07-25 17:10:00,
2013-07-25 12:11:00,76.8,68.3,29.80,NNW,328,3.0,3.0,75,0.00,,---,0.00,113.00,VWS V14.01,2013-07-25 17:11:00,
2013-07-25 12:16:00,76.8,68.7,29.80,East,99,0.0,0.0,76,0.00,,---,0.00,116.00,VWS V14.01,2013-07-25 17:16:00,
2013-07-25 12:20:00,77.0,68.9,29.80,North,350,0.0,0.0,76,0.00,,---,0.00,130.00,VWS V14.01,2013-07-25 17:20:00,
2013-07-25 12:21:00,77.0,68.9,29.80,North,0,0.0,0.0,76,0.00,,---,0.00,135.00,VWS V14.01,2013-07-25 17:21:00,
2013-07-25 12:25:00,77.4,69.2,29.80,North,349,0.0,0.0,76,0.00,,---,0.00,179.00,VWS V14.01,2013-07-25 17:25:00,
2013-07-25 12:26:00,77.4,69.2,29.80,NNW,346,0.0,0.0,76,0.00,,---,0.00,190.00,VWS V14.01,2013-07-25 17:26:00,
2013-07-25 12:30:00,77.4,68.9,29.80,SSE,148,0.0,0.0,75,0.00,,---,0.00,238.00,VWS V14.01,2013-07-25 17:30:00,
2013-07-25 12:31:00,77.4,68.9,29.80,SSE,155,0.0,0.0,75,0.00,,---,0.00,243.00,VWS V14.01,2013-07-25 17:31:00,
2013-07-25 12:35:00,77.6,69.1,29.80,NW,308,0.0,0.0,75,0.00,,---,0.00,223.00,VWS V14.01,2013-07-25 17:35:00,
2013-07-25 12:36:00,77.7,69.2,29.80,NW,319,0.0,0.0,75,0.00,,---,0.00,218.00,VWS V14.01,2013-07-25 17:36:00,
2013-07-25 12:40:00,77.9,69.3,29.80,North,0,5.0,5.0,75,0.00,,---,0.00,204.00,VWS V14.01,2013-07-25 17:40:00,
2013-07-25 12:41:00,77.9,69.3,29.80,North,354,3.0,5.0,75,0.00,,---,0.00,197.00,VWS V14.01,2013-07-25 17:41:00,
2013-07-25 12:45:00,78.1,69.5,29.79,NW,322,5.0,7.0,75,0.00,,---,0.00,169.00,VWS V14.01,2013-07-25 17:45:00,
2013-07-25 12:46:00,78.1,69.5,29.79,North,0,6.0,6.0,75,0.00,,---,0.00,165.00,VWS V14.01,2013-07-25 17:46:00,
2013-07-25 12:50:00,78.1,69.5,29.79,SSW,213,6.0,7.0,75,0.00,,---,0.00,146.00,VWS V14.01,2013-07-25 17:50:00,
2013-07-25 12:51:00,78.1,69.5,29.79,SSE,168,5.0,7.0,75,0.00,,---,0.00,144.00,VWS V14.01,2013-07-25 17:51:00,
2013-07-25 12:55:00,78.1,69.5,29.79,North,359,6.0,7.0,75,0.00,,---,0.00,137.00,VWS V14.01,2013-07-25 17:55:00,
2013-07-25 12:56:00,78.3,69.7,29.79,WSW,246,8.0,9.0,75,0.00,,---,0.00,137.00,VWS V14.01,2013-07-25 17:56:00,
2013-07-25 13:00:00,78.3,69.7,29.78,North,0,7.0,10.0,75,0.00,,---,0.00,141.00,VWS V14.01,2013-07-25 18:00:00,
2013-07-25 13:02:00,78.3,69.7,29.78,SE,140,6.0,7.0,75,0.00,,---,0.00,143.00,VWS V14.01,2013-07-25 18:02:00,
2013-07-25 13:05:00,78.5,69.9,29.78,North,0,6.0,8.0,75,0.00,,---,0.00,150.00,VWS V14.01,2013-07-25 18:05:00,
2013-07-25 13:07:00,78.6,70.0,29.78,NNW,346,6.0,10.0,75,0.00,,---,0.00,137.00,VWS V14.01,2013-07-25 18:07:00,
2013-07-25 13:10:00,78.6,70.0,29.78,NNW,347,8.0,11.0,75,0.00,,---,0.00,139.00,VWS V14.01,2013-07-25 18:10:00,
2013-07-25 13:12:00,78.6,70.0,29.78,North,0,3.0,10.0,75,0.00,,---,0.00,139.00,VWS V14.01,2013-07-25 18:12:00,
2013-07-25 13:15:00,78.8,69.8,29.78,North,354,4.0,11.0,74,0.00,,---,0.00,139.00,VWS V14.01,2013-07-25 18:15:00,
2013-07-25 13:17:00,78.8,69.8,29.78,North,0,7.0,9.0,74,0.00,,---,0.00,139.00,VWS V14.01,2013-07-25 18:17:00,
2013-07-25 13:20:00,78.8,69.8,29.78,North,356,8.0,9.0,74,0.00,,---,0.00,135.00,VWS V14.01,2013-07-25 18:20:00,
2013-07-25 13:22:00,79.0,70.0,29.78,North,0,10.0,11.0,74,0.00,,---,0.00,134.00,VWS V14.01,2013-07-25 18:22:00,
2013-07-25 13:25:00,79.0,69.6,29.78,South,175,5.0,11.0,73,0.00,,---,0.00,128.00,VWS V14.01,2013-07-25 18:25:00,
2013-07-25 13:27:00,79.2,69.8,29.78,North,349,2.0,5.0,73,0.00,,---,0.00,127.00,VWS V14.01,2013-07-25 18:27:00,
2013-07-25 13:30:00,79.4,70.0,29.79,North,357,3.0,6.0,73,0.00,,---,0.00,121.00,VWS V14.01,2013-07-25 18:30:00,
2013-07-25 13:32:00,79.4,70.0,29.79,North,0,3.0,7.0,73,0.00,,---,0.00,116.00,VWS V14.01,2013-07-25 18:32:00,
2013-07-25 13:35:00,79.4,69.6,29.79,North,352,5.0,7.0,72,0.00,,---,0.00,109.00,VWS V14.01,2013-07-25 18:35:00,
2013-07-25 13:37:00,79.6,69.8,29.79,NW,320,6.0,8.0,72,0.00,,---,0.00,104.00,VWS V14.01,2013-07-25 18:37:00,
2013-07-25 13:40:00,79.6,70.2,29.79,North,350,2.0,8.0,73,0.00,,---,0.00,113.00,VWS V14.01,2013-07-25 18:40:00,
2013-07-25 13:42:00,79.6,69.8,29.79,SE,144,3.0,6.0,72,0.00,,---,0.00,113.00,VWS V14.01,2013-07-25 18:42:00,
2013-07-25 13:45:00,79.8,70.4,29.79,North,349,5.0,7.0,73,0.00,,---,0.00,114.00,VWS V14.01,2013-07-25 18:45:00,
2013-07-25 13:47:00,79.8,70.0,29.79,NW,312,4.0,8.0,72,0.00,,---,0.00,113.00,VWS V14.01,2013-07-25 18:47:00,
2013-07-25 13:50:00,79.8,70.0,29.79,North,354,2.0,8.0,72,0.00,,---,0.00,104.00,VWS V14.01,2013-07-25 18:50:00,
2013-07-25 13:52:00,79.8,70.0,29.79,North,0,3.0,7.0,72,0.00,,---,0.00,102.00,VWS V14.01,2013-07-25 18:52:00,
2013-07-25 13:55:00,79.8,70.0,29.79,North,359,3.0,7.0,72,0.00,,---,0.00,100.00,VWS V14.01,2013-07-25 18:55:00,
2013-07-25 13:58:00,79.8,70.0,29.79,North,356,5.0,6.0,72,0.00,,---,0.00,97.00,VWS V14.01,2013-07-25 18:58:00,
2013-07-25 14:00:00,79.8,70.0,29.80,North,0,1.0,7.0,72,0.00,,---,0.00,90.00,VWS V14.01,2013-07-25 19:00:00,
2013-07-25 14:03:00,79.8,70.0,29.80,North,0,0.0,3.0,72,0.00,,---,0.00,79.00,VWS V14.01,2013-07-25 19:03:00,
2013-07-25 14:05:00,79.8,70.4,29.80,North,0,3.0,6.0,73,0.00,,---,0.00,72.00,VWS V14.01,2013-07-25 19:05:00,
2013-07-25 14:08:00,79.8,70.0,29.80,North,0,3.0,5.0,72,0.00,,---,0.00,58.00,VWS V14.01,2013-07-25 19:08:00,
2013-07-25 14:10:00,79.8,70.0,29.80,North,359,1.0,6.0,72,0.00,,---,0.00,58.00,VWS V14.01,2013-07-25 19:10:00,
2013-07-25 14:13:00,79.8,70.4,29.80,North,357,6.0,6.0,73,0.00,,---,0.00,62.00,VWS V14.01,2013-07-25 19:13:00,
2013-07-25 14:15:00,79.8,70.4,29.80,North,0,0.0,6.0,73,0.00,,---,0.00,74.00,VWS V14.01,2013-07-25 19:15:00,
2013-07-25 14:18:00,79.8,70.4,29.80,WSW,256,3.0,5.0,73,0.00,,---,0.00,84.00,VWS V14.01,2013-07-25 19:18:00,
2013-07-25 14:20:00,79.8,70.8,29.80,North,0,3.0,5.0,74,0.00,,---,0.00,97.00,VWS V14.01,2013-07-25 19:20:00,
2013-07-25 14:23:00,79.8,70.8,29.80,North,356,5.0,6.0,74,0.00,,---,0.00,104.00,VWS V14.01,2013-07-25 19:23:00,
2013-07-25 14:25:00,79.8,70.8,29.80,South,169,5.0,6.0,74,0.00,,---,0.00,102.00,VWS V14.01,2013-07-25 19:25:00,
2013-07-25 14:28:00,79.8,71.2,29.80,North,350,4.0,7.0,75,0.00,,---,0.00,104.00,VWS V14.01,2013-07-25 19:28:00,
2013-07-25 14:30:00,79.8,71.2,29.80,North,0,2.0,7.0,75,0.00,,---,0.00,106.00,VWS V14.01,2013-07-25 19:30:00,
2013-07-25 14:33:00,79.8,71.6,29.80,North,356,4.0,6.0,76,0.00,,---,0.00,95.00,VWS V14.01,2013-07-25 19:33:00,
2013-07-25 14:35:00,79.6,71.4,29.80,SSW,213,2.0,6.0,76,0.00,,---,0.00,86.00,VWS V14.01,2013-07-25 19:35:00,
2013-07-25 14:38:00,79.6,71.8,29.80,NW,316,0.0,2.0,77,0.00,,---,0.00,77.00,VWS V14.01,2013-07-25 19:38:00,
2013-07-25 14:40:00,79.6,72.1,29.80,North,0,0.0,3.0,78,0.00,,---,0.00,81.00,VWS V14.01,2013-07-25 19:40:00,
2013-07-25 14:43:00,79.6,72.1,29.80,WNW,295,0.0,3.0,78,0.00,,---,0.00,69.00,VWS V14.01,2013-07-25 19:43:00,
2013-07-25 14:45:00,79.4,71.9,29.80,SSW,193,0.0,3.0,78,0.00,,---,0.00,63.00,VWS V14.01,2013-07-25 19:45:00,
2013-07-25 14:48:00,79.4,71.9,29.80,SW,227,0.0,0.0,78,0.00,,---,0.00,55.00,VWS V14.01,2013-07-25 19:48:00,
2013-07-25 14:50:00,79.4,71.9,29.80,SW,233,0.0,0.0,78,0.00,,---,0.00,51.00,VWS V14.01,2013-07-25 19:50:00,
2013-07-25 14:54:00,79.4,71.9,29.80,South,188,0.0,0.0,78,0.00,,---,0.00,51.00,VWS V14.01,2013-07-25 19:54:00,
2013-07-25 14:55:00,79.4,71.6,29.80,SSW,213,0.0,0.0,77,0.00,,---,0.00,55.00,VWS V14.01,2013-07-25 19:55:00,
2013-07-25 14:59:00,79.4,71.6,29.80,SW,232,0.0,0.0,77,0.00,,---,0.00,65.00,VWS V14.01,2013-07-25 19:59:00,
2013-07-25 15:00:00,79.4,71.6,29.80,SW,236,0.0,0.0,77,0.00,,---,0.00,76.00,VWS V14.01,2013-07-25 20:00:00,
2013-07-25 15:04:00,79.4,71.9,29.80,North,0,5.0,5.0,78,0.00,,---,0.00,97.00,VWS V14.01,2013-07-25 20:04:00,
2013-07-25 15:05:00,79.6,72.1,29.80,NW,323,5.0,6.0,78,0.00,,---,0.00,107.00,VWS V14.01,2013-07-25 20:05:00,
2013-07-25 15:09:00,79.6,72.5,29.80,WNW,298,7.0,8.0,79,0.00,,---,0.00,113.00,VWS V14.01,2013-07-25 20:09:00,
2013-07-25 15:10:00,79.0,71.6,29.80,WSW,239,5.0,10.0,78,0.00,,---,0.00,125.00,VWS V14.01,2013-07-25 20:10:00,
2013-07-25 15:14:00,77.9,70.9,29.80,NNW,346,6.0,8.0,79,0.00,,---,0.00,132.00,VWS V14.01,2013-07-25 20:14:00,
2013-07-25 15:15:00,77.6,70.9,29.79,NNW,337,6.0,8.0,80,0.00,,---,0.00,125.00,VWS V14.01,2013-07-25 20:15:00,
2013-07-25 15:19:00,77.0,71.1,29.79,NW,322,7.0,7.0,82,0.01,,---,0.01,58.00,VWS V14.01,2013-07-25 20:19:00,
2013-07-25 15:20:00,76.8,70.9,29.79,North,0,8.0,8.0,82,0.02,,---,0.02,49.00,VWS V14.01,2013-07-25 20:20:00,
2013-07-25 15:24:00,75.8,70.6,29.79,North,0,10.0,12.0,84,0.03,,---,0.03,19.00,VWS V14.01,2013-07-25 20:24:00,
2013-07-25 15:25:00,75.4,70.2,29.79,North,0,6.0,12.0,84,0.03,,---,0.03,19.00,VWS V14.01,2013-07-25 20:25:00,
2013-07-25 15:29:00,74.6,70.1,29.81,North,353,10.0,12.0,86,0.07,,---,0.07,37.00,VWS V14.01,2013-07-25 20:29:00,
2013-07-25 15:30:00,74.4,69.9,29.81,NE,52,10.0,12.0,86,0.08,,---,0.08,39.00,VWS V14.01,2013-07-25 20:30:00,
2013-07-25 15:34:00,73.7,69.9,29.81,North,0,12.0,13.0,88,0.08,,---,0.08,42.00,VWS V14.01,2013-07-25 20:34:00,
2013-07-25 15:35:00,73.5,69.7,29.81,NNW,337,13.0,13.0,88,0.09,,---,0.09,42.00,VWS V14.01,2013-07-25 20:35:00,
2013-07-25 15:40:00,73.0,70.2,29.81,North,357,12.0,16.0,91,0.09,,---,0.09,44.00,VWS V14.01,2013-07-25 20:40:00,
2013-07-25 15:45:00,72.5,70.4,29.81,North,349,6.0,16.0,93,0.09,,---,0.09,70.00,VWS V14.01,2013-07-25 20:45:00,
2013-07-25 15:50:00,72.5,70.7,29.81,NW,326,10.0,12.0,94,0.09,,---,0.09,99.00,VWS V14.01,2013-07-25 20:50:00,
2013-07-25 15:55:00,72.3,70.8,29.81,North,0,8.0,12.0,95,0.09,,---,0.09,84.00,VWS V14.01,2013-07-25 20:55:00,
2013-07-25 16:00:00,72.3,70.8,29.82,NW,308,7.0,12.0,95,0.09,,---,0.09,83.00,VWS V14.01,2013-07-25 21:00:00,
2013-07-25 16:05:00,72.3,70.8,29.82,ESE,119,7.0,7.0,95,0.10,,---,0.10,79.00,VWS V14.01,2013-07-25 21:05:00,
2013-07-25 16:10:00,72.5,71.0,29.82,WSW,240,3.0,7.0,95,0.11,,---,0.11,46.00,VWS V14.01,2013-07-25 21:10:00,
2013-07-25 16:15:00,72.7,71.5,29.81,NNW,340,4.0,6.0,96,0.12,,---,0.12,67.00,VWS V14.01,2013-07-25 21:15:00,
2013-07-25 16:20:00,72.8,71.6,29.81,West,270,3.0,6.0,96,0.13,,---,0.13,90.00,VWS V14.01,2013-07-25 21:20:00,
2013-07-25 16:25:00,72.8,71.6,29.81,North,0,3.0,6.0,96,0.12,,---,0.14,83.00,VWS V14.01,2013-07-25 21:25:00,
2013-07-25 16:30:00,72.8,71.6,29.81,NNW,336,7.0,8.0,96,0.11,,---,0.14,72.00,VWS V14.01,2013-07-25 21:30:00,
2013-07-25 16:35:00,72.7,71.5,29.81,NNW,340,6.0,8.0,96,0.06,,---,0.14,55.00,VWS V14.01,2013-07-25 21:35:00,
2013-07-25 16:40:00,72.5,71.3,29.81,North,357,6.0,8.0,96,0.05,,---,0.14,55.00,VWS V14.01,2013-07-25 21:40:00,
2013-07-25 16:45:00,72.3,71.1,29.81,North,359,6.0,6.0,96,0.05,,---,0.14,72.00,VWS V14.01,2013-07-25 21:45:00,
2013-07-25 16:50:00,72.0,70.8,29.81,North,0,3.0,7.0,96,0.05,,---,0.14,93.00,VWS V14.01,2013-07-25 21:50:00,
2013-07-25 16:55:00,71.1,69.9,29.81,North,0,5.0,11.0,96,0.05,,---,0.14,104.00,VWS V14.01,2013-07-25 21:55:00,
2013-07-25 16:56:00,71.1,69.9,29.81,NNW,346,5.0,5.0,96,0.05,,---,0.14,104.00,VWS V14.01,2013-07-25 21:56:00,
2013-07-25 17:00:00,70.9,69.7,29.80,SSW,193,5.0,6.0,96,0.05,,---,0.14,72.00,VWS V14.01,2013-07-25 22:00:00,
2013-07-25 17:01:00,70.9,69.7,29.80,NW,319,8.0,8.0,96,0.05,,---,0.14,70.00,VWS V14.01,2013-07-25 22:01:00,
2013-07-25 17:05:00,70.8,69.6,29.80,North,0,5.0,8.0,96,0.05,,---,0.14,62.00,VWS V14.01,2013-07-25 22:05:00,
2013-07-25 17:06:00,70.8,69.6,29.80,ENE,66,6.0,7.0,96,0.04,,---,0.14,60.00,VWS V14.01,2013-07-25 22:06:00,
2013-07-25 17:10:00,70.8,69.6,29.80,NNW,342,5.0,7.0,96,0.04,,---,0.14,46.00,VWS V14.01,2013-07-25 22:10:00,
2013-07-25 17:11:00,70.8,69.6,29.80,North,349,5.0,6.0,96,0.03,,---,0.14,42.00,VWS V14.01,2013-07-25 22:11:00,
2013-07-25 17:15:00,70.9,69.7,29.80,East,96,5.0,6.0,96,0.04,,---,0.15,40.00,VWS V14.01,2013-07-25 22:15:00,
2013-07-25 17:17:00,70.9,69.7,29.80,NNW,330,6.0,7.0,96,0.03,,---,0.15,39.00,VWS V14.01,2013-07-25 22:17:00,
2013-07-25 17:20:00,70.8,69.6,29.80,WSW,257,6.0,7.0,96,0.03,,---,0.15,39.00,VWS V14.01,2013-07-25 22:20:00,
2013-07-25 17:22:00,70.9,69.7,29.80,North,0,5.0,6.0,96,0.02,,---,0.15,39.00,VWS V14.01,2013-07-25 22:22:00,
2013-07-25 17:27:00,70.9,69.7,29.80,North,350,0.0,5.0,96,0.01,,---,0.15,35.00,VWS V14.01,2013-07-25 22:27:00,
2013-07-25 17:30:00,70.9,69.7,29.80,East,88,5.0,6.0,96,0.01,,---,0.15,32.00,VWS V14.01,2013-07-25 22:30:00,
2013-07-25 17:32:00,70.9,70.0,29.80,North,0,6.0,6.0,97,0.01,,---,0.15,30.00,VWS V14.01,2013-07-25 22:32:00,
2013-07-25 17:35:00,70.9,70.0,29.80,North,0,5.0,7.0,97,0.01,,---,0.15,30.00,VWS V14.01,2013-07-25 22:35:00,
2013-07-25 17:37:00,71.1,70.2,29.80,NW,326,6.0,7.0,97,0.01,,---,0.15,28.00,VWS V14.01,2013-07-25 22:37:00,
2013-07-25 17:40:00,71.1,70.2,29.80,WNW,288,8.0,8.0,97,0.01,,---,0.15,33.00,VWS V14.01,2013-07-25 22:40:00,
2013-07-25 17:42:00,71.1,70.2,29.80,NNW,332,10.0,11.0,97,0.01,,---,0.15,33.00,VWS V14.01,2013-07-25 22:42:00,
2013-07-25 17:45:00,70.9,70.0,29.79,NNW,337,7.0,11.0,97,0.01,,---,0.15,32.00,VWS V14.01,2013-07-25 22:45:00,
2013-07-25 17:48:00,70.9,70.0,29.79,North,0,7.0,9.0,97,0.01,,---,0.15,32.00,VWS V14.01,2013-07-25 22:48:00,
2013-07-25 17:50:00,70.8,69.9,29.79,North,0,6.0,10.0,97,0.01,,---,0.15,28.00,VWS V14.01,2013-07-25 22:50:00,
2013-07-25 17:53:00,70.8,69.9,29.79,North,0,6.0,7.0,97,0.01,,---,0.15,25.00,VWS V14.01,2013-07-25 22:53:00,
2013-07-25 17:55:00,70.8,69.9,29.79,North,350,2.0,7.0,97,0.01,,---,0.15,25.00,VWS V14.01,2013-07-25 22:55:00,
2013-07-25 17:58:00,70.9,70.0,29.79,North,0,5.0,7.0,97,0.01,,---,0.15,25.00,VWS V14.01,2013-07-25 22:58:00,
2013-07-25 18:00:00,70.9,70.0,29.79,NNW,335,3.0,7.0,97,0.01,,---,0.15,25.00,VWS V14.01,2013-07-25 23:00:00,
2013-07-25 18:03:00,71.1,70.2,29.79,ESE,106,3.0,7.0,97,0.02,,---,0.16,25.00,VWS V14.01,2013-07-25 23:03:00,
2013-07-25 18:05:00,71.1,70.2,29.79,North,0,4.0,7.0,97,0.02,,---,0.16,25.00,VWS V14.01,2013-07-25 23:05:00,
2013-07-25 18:08:00,71.1,70.2,29.79,East,97,1.0,6.0,97,0.02,,---,0.16,25.00,VWS V14.01,2013-07-25 23:08:00,
2013-07-25 18:10:00,71.1,70.2,29.79,North,0,2.0,6.0,97,0.02,,---,0.16,21.00,VWS V14.01,2013-07-25 23:10:00,
2013-07-25 18:13:00,71.1,70.2,29.79,SSW,193,5.0,5.0,97,0.03,,---,0.17,23.00,VWS V14.01,2013-07-25 23:13:00,
2013-07-25 18:15:00,71.1,70.2,29.79,North,0,5.0,6.0,97,0.03,,---,0.17,23.00,VWS V14.01,2013-07-25 23:15:00,
2013-07-25 18:18:00,71.1,70.2,29.79,North,0,5.0,7.0,97,0.03,,---,0.18,25.00,VWS V14.01,2013-07-25 23:18:00,
2013-07-25 18:20:00,71.3,70.4,29.79,ESE,109,3.0,7.0,97,0.03,,---,0.18,25.00,VWS V14.01,2013-07-25 23:20:00,
2013-07-25 18:23:00,71.3,70.4,29.79,NNW,344,7.0,7.0,97,0.03,,---,0.18,25.00,VWS V14.01,2013-07-25 23:23:00,
2013-07-25 18:25:00,71.3,70.4,29.79,East,99,6.0,8.0,97,0.04,,---,0.19,25.00,VWS V14.01,2013-07-25 23:25:00,
2013-07-25 18:28:00,71.3,70.4,29.79,NNW,342,11.0,11.0,97,0.04,,---,0.19,25.00,VWS V14.01,2013-07-25 23:28:00,
2013-07-25 18:30:00,71.1,70.2,29.78,NNW,342,10.0,14.0,97,0.04,,---,0.19,23.00,VWS V14.01,2013-07-25 23:30:00,
2013-07-25 18:33:00,70.9,70.0,29.78,West,261,11.0,13.0,97,0.05,,---,0.20,23.00,VWS V14.01,2013-07-25 23:33:00,
2013-07-25 18:35:00,70.8,69.9,29.78,North,356,12.0,13.0,97,0.05,,---,0.20,19.00,VWS V14.01,2013-07-25 23:35:00,
2013-07-25 18:39:00,70.4,69.5,29.78,North,357,11.0,17.0,97,0.05,,---,0.20,19.00,VWS V14.01,2013-07-25 23:39:00,
2013-07-25 18:40:00,70.4,69.5,29.78,North,0,12.0,17.0,97,0.06,,---,0.21,19.00,VWS V14.01,2013-07-25 23:40:00,
2013-07-25 18:44:00,70.3,69.4,29.78,North,359,11.0,13.0,97,0.06,,---,0.21,21.00,VWS V14.01,2013-07-25 23:44:00,
2013-07-25 18:45:00,70.1,69.2,29.78,North,0,10.0,13.0,97,0.06,,---,0.21,21.00,VWS V14.01,2013-07-25 23:45:00,
2013-07-25 18:49:00,70.1,69.2,29.78,North,350,11.0,11.0,97,0.06,,---,0.21,23.00,VWS V14.01,2013-07-25 23:49:00,
2013-07-25 18:50:00,70.1,69.2,29.78,ESE,102,6.0,11.0,97,0.06,,---,0.21,23.00,VWS V14.01,2013-07-25 23:50:00,
2013-07-25 18:54:00,69.9,69.0,29.78,NNW,347,8.0,8.0,97,0.06,,---,0.21,25.00,VWS V14.01,2013-07-25 23:54:00,
2013-07-25 18:55:00,69.8,68.6,29.78,SW,220,5.0,8.0,96,0.06,,---,0.21,23.00,VWS V14.01,2013-07-25 23:55:00,
2013-07-25 18:59:00,69.9,68.7,29.78,SW,224,3.0,7.0,96,0.07,,---,0.22,19.00,VWS V14.01,2013-07-25 23:59:00,
2013-07-25 19:00:00,69.9,68.7,29.78,North,0,5.0,7.0,96,0.07,,---,0.22,19.00,VWS V14.01,2013-07-26 00:00:00,
2013-07-25 19:04:00,69.9,68.7,29.78,NNW,337,3.0,7.0,96,0.07,,---,0.22,23.00,VWS V14.01,2013-07-26 00:04:00,
2013-07-25 19:05:00,69.9,68.7,29.78,NNW,339,5.0,7.0,96,0.07,,---,0.22,23.00,VWS V14.01,2013-07-26 00:05:00,
2013-07-25 19:09:00,69.9,68.7,29.78,North,0,10.0,11.0,96,0.06,,---,0.22,19.00,VWS V14.01,2013-07-26 00:09:00,
2013-07-25 19:10:00,69.9,68.7,29.78,NNW,340,6.0,11.0,96,0.06,,---,0.22,19.00,VWS V14.01,2013-07-26 00:10:00,
2013-07-25 19:15:00,69.8,68.6,29.77,North,353,7.0,12.0,96,0.06,,---,0.22,16.00,VWS V14.01,2013-07-26 00:15:00,
2013-07-25 19:20:00,69.8,68.6,29.77,WNW,294,11.0,13.0,96,0.05,,---,0.22,14.00,VWS V14.01,2013-07-26 00:20:00,
2013-07-25 19:25:00,69.6,68.4,29.77,North,350,11.0,12.0,96,0.05,,---,0.23,11.00,VWS V14.01,2013-07-26 00:25:00,
2013-07-25 19:30:00,69.4,67.9,29.78,North,349,8.0,12.0,95,0.04,,---,0.23,9.00,VWS V14.01,2013-07-26 00:30:00,
2013-07-25 19:35:00,69.3,67.8,29.78,WNW,291,7.0,10.0,95,0.05,,---,0.24,7.00,VWS V14.01,2013-07-26 00:35:00,
2013-07-25 19:40:00,69.3,67.5,29.78,NW,323,8.0,9.0,94,0.04,,---,0.24,5.00,VWS V14.01,2013-07-26 00:40:00,
2013-07-25 19:45:00,69.3,67.5,29.77,NNW,340,10.0,10.0,94,0.03,,---,0.24,5.00,VWS V14.01,2013-07-26 00:45:00,
2013-07-25 19:50:00,69.1,67.3,29.77,NNW,340,8.0,8.0,94,0.04,,---,0.25,5.00,VWS V14.01,2013-07-26 00:50:00,
2013-07-25 19:55:00,69.1,67.3,29.77,NNW,344,5.0,8.0,94,0.04,,---,0.25,0.00,VWS V14.01,2013-07-26 00:55:00,
2013-07-25 20:00:00,69.1,67.3,29.78,North,0,5.0,8.0,94,0.04,,---,0.25,0.00,VWS V14.01,2013-07-26 01:00:00,
2013-07-25 20:05:00,69.1,67.3,29.78,SW,217,5.0,6.0,94,0.03,,---,0.25,0.00,VWS V14.01,2013-07-26 01:05:00,
2013-07-25 20:10:00,69.1,67.3,29.78,North,0,3.0,3.0,94,0.04,,---,0.26,0.00,VWS V14.01,2013-07-26 01:10:00,
2013-07-25 20:15:00,69.1,67.3,29.78,SSW,195,4.0,5.0,94,0.04,,---,0.26,0.00,VWS V14.01,2013-07-26 01:15:00,
2013-07-25 20:16:00,69.1,67.3,29.78,SSE,162,3.0,4.0,94,0.04,,---,0.26,0.00,VWS V14.01,2013-07-26 01:16:00,
2013-07-25 20:20:00,69.1,67.3,29.78,ESE,106,2.0,6.0,94,0.04,,---,0.26,0.00,VWS V14.01,2013-07-26 01:20:00,
2013-07-25 20:21:00,69.1,67.3,29.78,ESE,106,2.0,3.0,94,0.04,,---,0.26,0.00,VWS V14.01,2013-07-26 01:21:00,
2013-07-25 20:25:00,69.1,67.3,29.78,North,0,5.0,6.0,94,0.04,,---,0.26,0.00,VWS V14.01,2013-07-26 01:25:00,
2013-07-25 20:26:00,68.9,67.1,29.78,North,0,4.0,5.0,94,0.03,,---,0.26,0.00,VWS V14.01,2013-07-26 01:26:00,
2013-07-25 20:30:00,68.9,67.1,29.77,NW,308,5.0,6.0,94,0.03,,---,0.26,0.00,VWS V14.01,2013-07-26 01:30:00,
2013-07-25 20:31:00,68.9,67.1,29.77,NW,325,3.0,5.0,94,0.03,,---,0.26,0.00,VWS V14.01,2013-07-26 01:31:00,
2013-07-25 20:35:00,68.9,67.1,29.77,North,0,6.0,7.0,94,0.03,,---,0.26,0.00,VWS V14.01,2013-07-26 01:35:00,
2013-07-25 20:37:00,68.9,67.1,29.77,North,0,5.0,7.0,94,0.02,,---,0.26,0.00,VWS V14.01,2013-07-26 01:37:00,
2013-07-25 20:40:00,68.9,67.1,29.77,North,0,3.0,7.0,94,0.02,,---,0.26,0.00,VWS V14.01,2013-07-26 01:40:00,
2013-07-25 20:42:00,68.9,67.1,29.77,North,0,5.0,7.0,94,0.02,,---,0.26,0.00,VWS V14.01,2013-07-26 01:42:00,
2013-07-25 20:45:00,68.9,67.1,29.78,WNW,287,5.0,7.0,94,0.02,,---,0.26,0.00,VWS V14.01,2013-07-26 01:45:00,
2013-07-25 20:47:00,68.9,67.1,29.78,West,278,3.0,5.0,94,0.02,,---,0.26,0.00,VWS V14.01,2013-07-26 01:47:00,
2013-07-25 20:50:00,68.9,67.1,29.78,South,175,2.0,5.0,94,0.02,,---,0.26,0.00,VWS V14.01,2013-07-26 01:50:00,
2013-07-25 20:52:00,68.9,67.1,29.78,WSW,254,2.0,5.0,94,0.01,,---,0.26,0.00,VWS V14.01,2013-07-26 01:52:00,
2013-07-25 20:55:00,69.1,67.3,29.78,NNW,337,3.0,5.0,94,0.01,,---,0.26,0.00,VWS V14.01,2013-07-26 01:55:00,
2013-07-25 20:57:00,68.9,67.1,29.78,North,0,3.0,6.0,94,0.01,,---,0.26,0.00,VWS V14.01,2013-07-26 01:57:00,
2013-07-25 21:00:00,68.9,67.1,29.78,North,352,3.0,6.0,94,0.01,,---,0.26,0.00,VWS V14.01,2013-07-26 02:00:00,
2013-07-25 21:02:00,69.1,67.3,29.78,North,349,5.0,6.0,94,0.01,,---,0.26,0.00,VWS V14.01,2013-07-26 02:02:00,
2013-07-25 21:05:00,69.1,67.3,29.78,NNW,335,7.0,10.0,94,0.02,,---,0.27,0.00,VWS V14.01,2013-07-26 02:05:00,
2013-07-25 21:07:00,69.1,67.0,29.78,North,0,8.0,10.0,93,0.02,,---,0.27,0.00,VWS V14.01,2013-07-26 02:07:00,
2013-07-25 21:10:00,69.1,67.0,29.78,NW,318,9.0,11.0,93,0.02,,---,0.27,0.00,VWS V14.01,2013-07-26 02:10:00,
2013-07-25 21:12:00,69.1,67.0,29.78,NNW,339,10.0,11.0,93,0.01,,---,0.27,0.00,VWS V14.01,2013-07-26 02:12:00,
2013-07-25 21:15:00,69.1,67.0,29.77,North,0,10.0,11.0,93,0.02,,---,0.28,0.00,VWS V14.01,2013-07-26 02:15:00,
2013-07-25 21:17:00,69.1,67.0,29.77,North,0,11.0,11.0,93,0.03,,---,0.29,0.00,VWS V14.01,2013-07-26 02:17:00,
2013-07-25 21:18:00,69.3,67.2,29.77,NNW,330,11.0,12.0,93,0.03,,---,0.29,0.00,VWS V14.01,2013-07-26 02:18:00,
2013-07-25 21:20:00,69.3,67.2,29.77,SE,134,11.0,13.0,93,0.03,,---,0.29,0.00,VWS V14.01,2013-07-26 02:20:00,
2013-07-25 21:23:00,69.3,67.2,29.77,NNW,347,10.0,15.0,93,0.04,,---,0.30,0.00,VWS V14.01,2013-07-26 02:23:00,
2013-07-25 21:25:00,69.3,67.2,29.77,WSW,248,14.0,15.0,93,0.04,,---,0.30,0.00,VWS V14.01,2013-07-26 02:25:00,
2013-07-25 21:28:00,69.4,67.3,29.77,NNW,342,12.0,14.0,93,0.04,,---,0.30,0.00,VWS V14.01,2013-07-26 02:28:00,
2013-07-25 21:30:00,69.4,67.3,29.76,NNW,346,12.0,14.0,93,0.04,,---,0.30,0.00,VWS V14.01,2013-07-26 02:30:00,
2013-07-25 21:33:00,69.4,67.3,29.76,North,0,11.0,14.0,93,0.04,,---,0.30,0.00,VWS V14.01,2013-07-26 02:33:00,
2013-07-25 21:35:00,69.4,67.3,29.76,NW,316,11.0,14.0,93,0.05,,---,0.31,0.00,VWS V14.01,2013-07-26 02:35:00,
2013-07-25 21:38:00,69.4,67.3,29.76,North,0,11.0,14.0,93,0.05,,---,0.31,0.00,VWS V14.01,2013-07-26 02:38:00,
2013-07-25 21:40:00,69.4,67.3,29.76,SSW,206,9.0,14.0,93,0.05,,---,0.31,0.00,VWS V14.01,2013-07-26 02:40:00,
2013-07-25 21:43:00,69.4,67.3,29.76,North,0,10.0,14.0,93,0.05,,---,0.31,0.00,VWS V14.01,2013-07-26 02:43:00,
2013-07-25 21:45:00,69.4,67.3,29.77,North,0,10.0,14.0,93,0.05,,---,0.31,0.00,VWS V14.01,2013-07-26 02:45:00,
2013-07-25 21:49:00,69.4,67.3,29.77,North,0,6.0,16.0,93,0.05,,---,0.31,0.00,VWS V14.01,2013-07-26 02:49:00,
2013-07-25 21:50:00,69.4,67.6,29.77,NNW,335,10.0,16.0,94,0.05,,---,0.31,0.00,VWS V14.01,2013-07-26 02:50:00,
2013-07-25 21:54:00,69.4,67.6,29.77,SSW,192,8.0,14.0,94,0.05,,---,0.31,0.00,VWS V14.01,2013-07-26 02:54:00,
2013-07-25 21:55:00,69.4,67.6,29.77,NNW,336,5.0,14.0,94,0.05,,---,0.31,0.00,VWS V14.01,2013-07-26 02:55:00,
2013-07-25 21:59:00,69.6,67.8,29.77,NNW,342,10.0,11.0,94,0.05,,---,0.31,0.00,VWS V14.01,2013-07-26 02:59:00,
2013-07-25 22:00:00,69.6,67.8,29.77,NNW,342,6.0,11.0,94,0.05,,---,0.31,0.00,VWS V14.01,2013-07-26 03:00:00,
2013-07-25 22:04:00,69.8,68.0,29.77,North,0,7.0,11.0,94,0.05,,---,0.31,0.00,VWS V14.01,2013-07-26 03:04:00,
2013-07-25 22:05:00,69.8,68.3,29.77,NNW,344,7.0,13.0,95,0.05,,---,0.31,0.00,VWS V14.01,2013-07-26 03:05:00,
2013-07-25 22:09:00,69.8,68.3,29.77,North,0,11.0,14.0,95,0.04,,---,0.31,0.00,VWS V14.01,2013-07-26 03:09:00,
2013-07-25 22:10:00,69.9,68.4,29.77,West,278,17.0,17.0,95,0.04,,---,0.31,0.00,VWS V14.01,2013-07-26 03:10:00,
2013-07-25 22:14:00,69.9,68.4,29.77,NNW,335,11.0,17.0,95,0.04,,---,0.31,0.00,VWS V14.01,2013-07-26 03:14:00,
2013-07-25 22:15:00,69.9,68.4,29.77,NNW,344,8.0,17.0,95,0.04,,---,0.31,0.00,VWS V14.01,2013-07-26 03:15:00,
2013-07-25 22:19:00,70.1,68.6,29.77,North,0,6.0,10.0,95,0.03,,---,0.31,0.00,VWS V14.01,2013-07-26 03:19:00,
2013-07-25 22:20:00,70.1,68.6,29.77,North,0,5.0,12.0,95,0.03,,---,0.31,0.00,VWS V14.01,2013-07-26 03:20:00,
2013-07-25 22:24:00,70.3,68.8,29.77,WSW,250,6.0,12.0,95,0.02,,---,0.31,0.00,VWS V14.01,2013-07-26 03:24:00,
2013-07-25 22:25:00,70.3,68.8,29.77,North,0,11.0,12.0,95,0.02,,---,0.31,0.00,VWS V14.01,2013-07-26 03:25:00,
2013-07-25 22:29:00,70.6,69.4,29.77,North,0,7.0,12.0,96,0.01,,---,0.31,0.00,VWS V14.01,2013-07-26 03:29:00,
2013-07-25 22:30:00,70.6,69.4,29.77,North,0,10.0,12.0,96,0.01,,---,0.31,0.00,VWS V14.01,2013-07-26 03:30:00,
2013-07-25 22:34:00,70.9,69.7,29.77,North,356,9.0,11.0,96,0.01,,---,0.31,0.00,VWS V14.01,2013-07-26 03:34:00,
2013-07-25 22:35:00,71.1,69.9,29.77,North,0,6.0,11.0,96,0.01,,---,0.31,0.00,VWS V14.01,2013-07-26 03:35:00,
2013-07-25 22:40:00,71.3,70.1,29.77,North,0,10.0,18.0,96,0.00,,---,0.31,0.00,VWS V14.01,2013-07-26 03:40:00,
2013-07-25 22:45:00,71.5,70.3,29.77,North,350,16.0,21.0,96,0.00,,---,0.31,0.00,VWS V14.01,2013-07-26 03:45:00,
2013-07-25 22:50:00,71.5,70.3,29.77,SW,236,18.0,19.0,96,0.00,,---,0.31,0.00,VWS V14.01,2013-07-26 03:50:00,
2013-07-25 22:55:00,71.6,70.4,29.77,NNW,336,8.0,21.0,96,0.00,,---,0.31,0.00,VWS V14.01,2013-07-26 03:55:00,
2013-07-25 23:00:00,71.6,70.4,29.77,NNW,344,8.0,14.0,96,0.01,,---,0.32,0.00,VWS V14.01,2013-07-26 04:00:00,
2013-07-25 23:01:00,71.6,70.1,29.77,SSE,161,10.0,10.0,95,0.01,,---,0.32,0.00,VWS V14.01,2013-07-26 04:01:00,
2013-07-25 23:02:00,71.6,70.1,29.77,North,349,11.0,11.0,95,0.01,,---,0.32,0.00,VWS V14.01,2013-07-26 04:02:00,
2013-07-25 23:03:00,71.6,70.1,29.77,NNW,333,7.0,11.0,95,0.01,,---,0.32,0.00,VWS V14.01,2013-07-26 04:03:00,
2013-07-25 23:04:00,71.6,70.1,29.77,NNW,337,8.0,14.0,95,0.01,,---,0.32,0.00,VWS V14.01,2013-07-26 04:04:00,
2013-07-25 23:05:00,71.5,70.0,29.77,NNW,342,11.0,14.0,95,0.01,,---,0.32,0.00,VWS V14.01,2013-07-26 04:05:00,
2013-07-25 23:09:00,70.9,69.1,29.77,NW,323,8.0,13.0,94,0.01,,---,0.32,0.00,VWS V14.01,2013-07-26 04:09:00,
2013-07-25 23:10:00,70.8,69.0,29.77,NW,325,7.0,13.0,94,0.01,,---,0.32,0.00,VWS V14.01,2013-07-26 04:10:00,
2013-07-25 23:14:00,70.6,68.8,29.75,North,354,7.0,12.0,94,0.01,,---,0.32,0.00,VWS V14.01,2013-07-26 04:14:00,
2013-07-25 23:15:00,70.6,68.8,29.75,NNW,342,8.0,12.0,94,0.01,,---,0.32,0.00,VWS V14.01,2013-07-26 04:15:00,
2013-07-25 23:20:00,70.8,69.0,29.75,NNW,339,8.0,14.0,94,0.01,,---,0.32,0.00,VWS V14.01,2013-07-26 04:20:00,
2013-07-25 23:25:00,70.6,68.5,29.75,North,0,6.0,11.0,93,0.02,,---,0.33,0.00,VWS V14.01,2013-07-26 04:25:00,
2013-07-25 23:30:00,70.4,68.3,29.77,North,0,10.0,11.0,93,0.02,,---,0.33,0.00,VWS V14.01,2013-07-26 04:30:00,
2013-07-25 23:35:00,70.3,68.2,29.77,NNW,339,7.0,12.0,93,0.04,,---,0.35,0.00,VWS V14.01,2013-07-26 04:35:00,
2013-07-25 23:40:00,69.9,67.8,29.77,West,268,11.0,15.0,93,0.04,,---,0.35,0.00,VWS V14.01,2013-07-26 04:40:00,
2013-07-25 23:45:00,69.8,67.7,29.79,WSW,254,8.0,14.0,93,0.05,,---,0.36,0.00,VWS V14.01,2013-07-26 04:45:00,
2013-07-25 23:50:00,69.8,67.7,29.79,North,0,10.0,11.0,93,0.06,,---,0.37,0.00,VWS V14.01,2013-07-26 04:50:00,
2013-07-25 23:55:00,69.8,68.0,29.79,NNW,335,11.0,13.0,94,0.08,,---,0.39,0.00,VWS V14.01,2013-07-26 04:55:00,